Location: Unspecified
(0.0000°N, 0.0000°E)
Time: 17:59:30
(UTC+00:00)

STARLINK 1067 - Pass Details

Date: 21 January 2020
Orbit: 548 x 551 km, 53.0° (Epoch: 17 January)

Event Time Altitude Azimuth Distance (km) Brightness Sun altitude
Rises 05:20:40 0° 218° (SW) 2,712 7.0 -11.8°
Reaches altitude 10° 05:22:55 10° 220° (SW) 1,817 6.1 -11.3°
Maximum altitude 05:27:01 70° 303° (WNW) 582 3.5 -10.3°
Drops below altitude 10° 05:31:06 10° 28° (NNE) 1,808 6.4 -9.4°
Sets 05:33:20 0° 30° (NNE) 2,698 7.3 -8.9°
